Previsão horária em Alio

Hoje, 20 Janeiro, Quarta-feira

Tempo Temperatura Precipitação Vento Pressão Humidade
00:00 +7°C° 0 mm 1 m/s 739 mmHg 79%
01:00 +6°C° 0 mm 1 m/s 738 mmHg 78%
02:00 +6°C° 0 mm 1 m/s 738 mmHg 78%
03:00 +6°C° 0 mm 1 m/s 737 mmHg 77%
04:00 +6°C° 0 mm 1 m/s 737 mmHg 79%
05:00 +7°C° 0 mm 1 m/s 736 mmHg 81%
06:00 +7°C° 0 mm 1 m/s 736 mmHg 82%
07:00 +8°C° 0 mm 1 m/s 736 mmHg 83%
08:00 +8°C° 0 mm 1 m/s 736 mmHg 84%
09:00 +9°C° 0 mm 1 m/s 736 mmHg 85%
10:00 +10°C° 0 mm 1 m/s 735 mmHg 79%
11:00 +11°C° 0 mm 1 m/s 735 mmHg 73%
12:00 +12°C° 0 mm 1 m/s 734 mmHg 67%
13:00 +12°C° 0 mm 2 m/s 734 mmHg 65%
14:00 +12°C° 0 mm 2 m/s 733 mmHg 63%
15:00 +12°C° 0 mm 2 m/s 732 mmHg 62%
16:00 +10°C° 0.1 mm 2 m/s 732 mmHg 69%
17:00 +9°C° 0.1 mm 2 m/s 732 mmHg 76%
18:00 +9°C° 0.1 mm 2 m/s 732 mmHg 82%
19:00 +8°C° 0 mm 2 m/s 732 mmHg 83%
20:00 +8°C° 0 mm 2 m/s 732 mmHg 83%
21:00 +9°C° 0 mm 1 m/s 732 mmHg 83%
22:00 +9°C° 0.3 mm 1 m/s 732 mmHg 84%
23:00 +9°C° 0.3 mm 1 m/s 732 mmHg 85%

Amanhã, 21 Janeiro, Quinta-feira

Tempo Temperatura Precipitação Vento Pressão Humidade
00:00 +9°C° 0.3 mm 1 m/s 733 mmHg 86%
01:00 +9°C° 0 mm 2 m/s 732 mmHg 85%
02:00 +9°C° 0 mm 2 m/s 732 mmHg 84%
03:00 +9°C° 0 mm 2 m/s 732 mmHg 83%
04:00 +8°C° 0 mm 2 m/s 732 mmHg 84%
05:00 +8°C° 0 mm 2 m/s 732 mmHg 85%
06:00 +7°C° 0 mm 2 m/s 732 mmHg 85%
07:00 +8°C° 0 mm 3 m/s 733 mmHg 83%
08:00 +8°C° 0 mm 3 m/s 733 mmHg 82%
09:00 +9°C° 0 mm 3 m/s 734 mmHg 80%
10:00 +10°C° 0 mm 4 m/s 734 mmHg 76%
11:00 +10°C° 0 mm 5 m/s 734 mmHg 72%
12:00 +11°C° 0 mm 6 m/s 734 mmHg 68%
13:00 +13°C° 0 mm 6 m/s 733 mmHg 66%
14:00 +13°C° 0 mm 6 m/s 733 mmHg 63%
15:00 +14°C° 0 mm 7 m/s 732 mmHg 61%
16:00 +13°C° 0 mm 6 m/s 732 mmHg 64%
17:00 +12°C° 0 mm 5 m/s 732 mmHg 67%
18:00 +10°C° 0 mm 5 m/s 732 mmHg 70%
19:00 +11°C° 0.1 mm 4 m/s 732 mmHg 71%
20:00 +11°C° 0.1 mm 4 m/s 732 mmHg 72%
21:00 +11°C° 0.1 mm 4 m/s 732 mmHg 74%
22:00 +11°C° 0.4 mm 4 m/s 731 mmHg 78%
23:00 +10°C° 0.4 mm 5 m/s 731 mmHg 82%

Depois de amanhã, 22 Janeiro, Sexta-feira

Tempo Temperatura Precipitação Vento Pressão Humidade
00:00 +9°C° 0.4 mm 5 m/s 731 mmHg 86%
01:00 +9°C° 0.1 mm 5 m/s 730 mmHg 87%
02:00 +9°C° 0.1 mm 5 m/s 730 mmHg 87%
03:00 +9°C° 0.1 mm 5 m/s 730 mmHg 88%
04:00 +9°C° 0.1 mm 5 m/s 730 mmHg 87%
05:00 +10°C° 0.1 mm 4 m/s 729 mmHg 85%
06:00 +10°C° 0.1 mm 4 m/s 729 mmHg 84%
07:00 +9°C° 0.1 mm 5 m/s 728 mmHg 84%
08:00 +9°C° 0.1 mm 5 m/s 728 mmHg 84%
09:00 +10°C° 0.1 mm 5 m/s 727 mmHg 84%
10:00 +10°C° 0.8 mm 7 m/s 727 mmHg 74%
11:00 +11°C° 0.8 mm 9 m/s 726 mmHg 65%
12:00 +11°C° 0.8 mm 11 m/s 726 mmHg 55%
13:00 +10°C° 0.1 mm 13 m/s 726 mmHg 58%
14:00 +9°C° 0.1 mm 15 m/s 725 mmHg 61%
15:00 +7°C° 0.1 mm 16 m/s 725 mmHg 64%
16:00 +7°C° 0 mm 16 m/s 726 mmHg 64%
17:00 +6°C° 0 mm 15 m/s 726 mmHg 63%
18:00 +6°C° 0 mm 14 m/s 727 mmHg 63%
19:00 +6°C° 0 mm 14 m/s 727 mmHg 63%
20:00 +7°C° 0 mm 13 m/s 728 mmHg 64%
21:00 +5°C° 0 mm 12 m/s 729 mmHg 64%
22:00 +6°C° 0 mm 11 m/s 729 mmHg 65%
23:00 +6°C° 0 mm 11 m/s 729 mmHg 66%

23 Janeiro, Sábado

Tempo Temperatura Precipitação Vento Pressão Humidade
00:00 +6°C° 0 mm 11 m/s 730 mmHg 67%
01:00 +5°C° 0 mm 10 m/s 730 mmHg 69%
02:00 +5°C° 0 mm 10 m/s 729 mmHg 70%
03:00 +5°C° 0 mm 10 m/s 729 mmHg 72%
04:00 +5°C° 0 mm 10 m/s 729 mmHg 71%
05:00 +4°C° 0 mm 11 m/s 729 mmHg 69%
06:00 +4°C° 0 mm 11 m/s 729 mmHg 68%
07:00 +4°C° 0 mm 12 m/s 729 mmHg 65%
08:00 +4°C° 0 mm 13 m/s 730 mmHg 63%
09:00 +4°C° 0 mm 14 m/s 730 mmHg 60%
10:00 +5°C° 0 mm 14 m/s 730 mmHg 56%
11:00 +6°C° 0 mm 14 m/s 730 mmHg 51%
12:00 +8°C° 0 mm 15 m/s 731 mmHg 47%
13:00 +8°C° 0 mm 15 m/s 731 mmHg 46%
14:00 +8°C° 0 mm 15 m/s 731 mmHg 45%
15:00 +8°C° 0 mm 15 m/s 731 mmHg 43%
16:00 +6°C° 0 mm 14 m/s 731 mmHg 45%
17:00 +5°C° 0 mm 12 m/s 732 mmHg 47%
18:00 +4°C° 0 mm 11 m/s 733 mmHg 48%
19:00 +5°C° 0 mm 9 m/s 733 mmHg 50%
20:00 +5°C° 0 mm 7 m/s 733 mmHg 51%
21:00 +5°C° 0 mm 5 m/s 733 mmHg 52%
22:00 +5°C° 0 mm 4 m/s 732 mmHg 55%
23:00 +5°C° 0 mm 3 m/s 732 mmHg 58%

24 Janeiro, Domingo

Tempo Temperatura Precipitação Vento Pressão Humidade
00:00 +6°C° 0 mm 2 m/s 731 mmHg 61%
01:00 +5°C° 0.9 mm 2 m/s 730 mmHg 70%
02:00 +5°C° 0.9 mm 2 m/s 728 mmHg 79%
03:00 +6°C° 0.9 mm 1 m/s 727 mmHg 88%
04:00 +5°C° 2.7 mm 2 m/s 726 mmHg 90%
05:00 +4°C° 2.7 mm 3 m/s 725 mmHg 92%
06:00 +5°C° 2.7 mm 3 m/s 724 mmHg 94%
07:00 +5°C° 0 mm 5 m/s 725 mmHg 90%
08:00 +4°C° 0 mm 8 m/s 726 mmHg 86%
09:00 +3°C° 0 mm 10 m/s 727 mmHg 82%
10:00 +5°C° 0 mm 10 m/s 728 mmHg 76%
11:00 +6°C° 0 mm 11 m/s 729 mmHg 70%
12:00 +8°C° 0 mm 11 m/s 730 mmHg 64%
13:00 +8°C° 0 mm 11 m/s 731 mmHg 61%
14:00 +8°C° 0 mm 12 m/s 731 mmHg 59%
15:00 +8°C° 0 mm 12 m/s 731 mmHg 56%
16:00 +7°C° 0 mm 12 m/s 732 mmHg 58%
17:00 +5°C° 0 mm 12 m/s 732 mmHg 59%
18:00 +4°C° 0 mm 12 m/s 733 mmHg 61%
19:00 +4°C° 0 mm 11 m/s 733 mmHg 61%
20:00 +5°C° 0 mm 10 m/s 734 mmHg 60%
21:00 +5°C° 0 mm 10 m/s 734 mmHg 60%
22:00 +3°C° 0 mm 9 m/s 734 mmHg 64%
23:00 +3°C° 0 mm 9 m/s 734 mmHg 67%

25 Janeiro, Segunda-feira

Tempo Temperatura Precipitação Vento Pressão Humidade
00:00 +2°C° 0 mm 9 m/s 735 mmHg 70%
01:00 +2°C° 0 mm 9 m/s 735 mmHg 73%
02:00 +2°C° 0 mm 9 m/s 735 mmHg 76%
03:00 +2°C° 0 mm 9 m/s 735 mmHg 79%
04:00 +2°C° 0 mm 7 m/s 736 mmHg 80%
05:00 +2°C° 0 mm 6 m/s 736 mmHg 81%
06:00 +1°C° 0 mm 5 m/s 736 mmHg 82%
07:00 +2°C° 0 mm 5 m/s 737 mmHg 79%
08:00 +3°C° 0 mm 4 m/s 737 mmHg 77%
09:00 +4°C° 0 mm 4 m/s 738 mmHg 74%
10:00 +5°C° 0 mm 4 m/s 738 mmHg 68%
11:00 +6°C° 0 mm 4 m/s 738 mmHg 62%
12:00 +7°C° 0 mm 4 m/s 738 mmHg 56%
13:00 +8°C° 0 mm 4 m/s 738 mmHg 55%
14:00 +8°C° 0 mm 5 m/s 738 mmHg 54%
15:00 +8°C° 0 mm 5 m/s 738 mmHg 53%
16:00 +7°C° 0 mm 5 m/s 738 mmHg 58%
17:00 +6°C° 0 mm 4 m/s 738 mmHg 63%
18:00 +5°C° 0 mm 4 m/s 739 mmHg 69%
19:00 +5°C° 0 mm 3 m/s 739 mmHg 71%
20:00 +4°C° 0 mm 3 m/s 739 mmHg 74%
21:00 +4°C° 0 mm 3 m/s 740 mmHg 77%
22:00 +4°C° 0 mm 3 m/s 740 mmHg 78%
23:00 +3°C° 0 mm 3 m/s 740 mmHg 79%
Mostrar mais

Necessitamos do seu Consentimento

A Meteoprog e os seus Fornecedores de Serviços podem armazenar e aceder a dados pessoais como cookies, identificadores do dispositivo ou outras tecnologias semelhantes existentes no seu dispositivo e processar estes dados para personalizar conteúdos e anúncios, assim como funcionalidades nas redes sociais e análise de tráfego.

  • Armazenar e/ou aceder a informações no seu dispositivo

    Os cookies, identificadores do dispositivo ou outras informações podem ser armazenados ou acedidos no seu dispositivo, para os fins acima indicados.

  • Anúncios e conteúdos personalizados, medição de anúncios e conteúdos, dados sobre o público-alvo e desenvolvimento de produtos

    Os anúncios e os conteúdos podem ser personalizados com base num perfil. Podem ser adicionados dados adicionais para uma maior personalização dos anúncios e dos conteúdos. A eficácia dos anúncios e dos conteúdos pode ser medida. Podem ser obtidas informações sobre o público que visualizou os anúncios e os conteúdos. Estes dados podem ser usados para desenvolver ou melhorar sistemas, softwares ou a experiência do utilizador.

Ao clicar em "Eu concordo”, permitirá o uso de cookies, identificadores do dispositivo e web beacons mencionados ou outras tecnologias semelhantes. As configurações do navegador do seu dispositivo podem ser alteradas.

Para certos fins, podem ser invocados interesses legítimos ao invés de consentimento. Pode ler mais informação sobre este assunto na nossa Política de Privacidade e Cookies.